SL-14 DEB

Satellite information

Favourite Embed

Satellite Type and Status

DEBRISIN ORBIT

Key statistics

Satellite SL-14 DEB at a glance.

Uptime

13947

Days in orbit

Revolutions

≈ 14.5

Per day

Orbit

LEO

Low Earth Orbit

Inclination

83.0

Latest

Satellite identification and parameters

Extended collection of information and parameters for SL-14 DEB.

Object identification

Identified? True

Debris? True

Object name: SL-14 DEB

International designator: 1987-068CZ

Object number (NORAD): 39973

Object ID (CCSDS): 39973

Country: COMMONWEALTH OF INDEPENDENT STATES (CIS)

Current information (Y/N): Y

RCS size: SMALL

Orbital parameters

Period: 99.142 minutes

Inclination: 83.024 deg

SMA: 7095.776 km

Apoapsis: 731.372 km

Periapsis: 703.91 km

RAAN: 110.8527 deg

Eccentricy: 0.00193506

Argument of periapsis: 210.675 deg

Mean anomaly: 149.332 deg

Mean motion: 14.52455825 rev/day

Mean motion (dot): 0.00008961 rev/day2

B* drag term: 0.0021864703 1/REarth

Two-line elements (TLE)

Creation date: Oct. 22, 2025, 5:40 p.m.

Reference frame: TEME

Reference center: EARTH

Epoch: Oct. 22, 2025, 5:15 a.m. UTC

TLE line 0: 0 SL-14 DEB

TLE line 1: 1 39973U 87068CZ 25295.21877020 .00008961 00000-0 21865-2 0 9998

TLE line 2: 2 39973 83.0240 110.8527 0019351 210.6750 149.3320 14.52455825595983

Live tracking on map

Real-time ground track for satellite SL-14 DEB.

In-orbit conjunctions

A list of the most updated potential collisions computed for object SL-14 DEB.

Target Orbit TCA Probability of collision Miss distance Type
FENGYUN 1C DEB SSO 2025-03-27 01:37:07 0.0001768242 78.0 (m) DEBRIS
COSMOS 2251 DEB LEO 2025-02-25 21:03:07 0.0001305789 103.0 (m) DEBRIS
TIROS 4 LEO 2024-10-28 10:32:35 0.0001333801 65.0 (m) PAYLOAD

Associated space launch

Second generation soviet meteorological satellite

SL-14 DEB was lifted into orbit during the mission ‘Tsiklon-3 | Meteor-2 16’, on board a Tsiklon-3 space rocket.

The launch took place on Aug. 18, 1987, 2:27 a.m. from 32/1.

For more information about the launch, click the button.

Launch to space Tsiklon-3 | Meteor-2 16
Tsiklon-3 | Meteor-2 16

Agency: N/A

Status: Launch Successful

Launch date: Aug. 18, 1987, 2:27 a.m. UTC

Rocket: Tsiklon-3

Launch pad: 32/1

Location: Plesetsk Cosmodrome, Russian Federation

...

Latest news about this satellite

There are no fresh news available about this satellite. Check back as we update our databases every day.


Newsletter sign-up

Weekly statistics, charts and insights to help you stay on top of the space industry.